Location: Newark
(9.4667°S, 159.8167°E)
Time: 07:28:22
(UTC+00:00)

Courier 1B Rocket - Pass Details

Date: 27 November 2019
Orbit: 920 x 1202 km, 28.2° (Epoch: 09 December)

Event Time Altitude Azimuth Distance (km) Brightness Sun altitude
Rises 12:46:20 0° 262° (W) 4,097 - -58.9°
Reaches altitude 10° 12:49:49 10° 249° (WSW) 3,126 - -59.1°
Maximum altitude 12:56:01 25° 196° (SSW) 2,157 - -59.3°
Drops below altitude 10° 13:02:03 10° 143° (SE) 3,027 - -59.4°
Sets 13:05:22 0° 130° (SE) 3,943 - -59.4°
